When you browse on this site, cookies collect data to enhance your experience and personalize the content and advertising you see.
Visit our Privacy Policy to learn more. By continuing to use the site, you agree to this use of cookies and data.
  • In Hungary
  • List of Countries
  • For 7 days
  • Water Temperature
  • Satellite Maps
  • Weather Map
  • News
  • Weather Widgets
  • user-avatar
    Login

    Hourly Weather Penguanzhuang

    Today, 21 April, Sunday

    Time Temperature Precipitation Wind Pressure Humidity
    00:00 +10°C° 0 mm 0 mps 760 mmHg 52%
    01:00 +11°C° 0 mm 1 mps 760 mmHg 53%
    02:00 +11°C° 0 mm 1 mps 760 mmHg 59%
    03:00 +10°C° 0 mm 1 mps 760 mmHg 60%
    04:00 +10°C° 0 mm 1 mps 761 mmHg 61%
    05:00 +9°C° 0 mm 2 mps 761 mmHg 63%
    06:00 +12°C° 0 mm 2 mps 761 mmHg 57%
    07:00 +13°C° 0 mm 2 mps 761 mmHg 52%
    08:00 +14°C° 0 mm 4 mps 762 mmHg 45%
    09:00 +15°C° 0 mm 4 mps 762 mmHg 38%
    10:00 +18°C° 0 mm 4 mps 762 mmHg 30%
    11:00 +20°C° 0 mm 4 mps 762 mmHg 23%
    12:00 +20°C° 0 mm 4 mps 761 mmHg 22%
    13:00 +21°C° 0 mm 4 mps 761 mmHg 22%
    14:00 +20°C° 0 mm 4 mps 761 mmHg 20%
    15:00 +20°C° 0 mm 4 mps 761 mmHg 22%
    16:00 +19°C° 0 mm 5 mps 760 mmHg 23%
    17:00 +19°C° 0 mm 5 mps 760 mmHg 24%
    18:00 +17°C° 0 mm 4 mps 760 mmHg 31%
    19:00 +15°C° 0 mm 4 mps 760 mmHg 38%
    20:00 +13°C° 0 mm 3 mps 760 mmHg 44%
    21:00 +12°C° 0 mm 3 mps 760 mmHg 50%
    22:00 +13°C° 0 mm 2 mps 760 mmHg 55%
    23:00 +12°C° 0 mm 2 mps 760 mmHg 61%

    Tomorrow, 22 April, Monday

    Time Temperature Precipitation Wind Pressure Humidity
    00:00 +12°C° 0 mm 2 mps 760 mmHg 64%
    01:00 +10°C° 0 mm 2 mps 760 mmHg 67%
    02:00 +11°C° 0 mm 1 mps 760 mmHg 70%
    03:00 +11°C° 0 mm 1 mps 760 mmHg 72%
    04:00 +11°C° 0 mm 1 mps 759 mmHg 74%
    05:00 +11°C° 0 mm 1 mps 759 mmHg 76%
    06:00 +12°C° 0 mm 1 mps 759 mmHg 71%
    07:00 +14°C° 0 mm 1 mps 759 mmHg 66%
    08:00 +15°C° 0 mm 1 mps 759 mmHg 60%
    09:00 +17°C° 0 mm 2 mps 759 mmHg 54%
    10:00 +20°C° 0 mm 3 mps 759 mmHg 49%
    11:00 +22°C° 0 mm 3 mps 758 mmHg 43%
    12:00 +23°C° 0 mm 4 mps 758 mmHg 40%
    13:00 +26°C° 0 mm 4 mps 757 mmHg 37%
    14:00 +27°C° 0 mm 5 mps 757 mmHg 35%
    15:00 +27°C° 0 mm 5 mps 756 mmHg 36%
    16:00 +27°C° 0 mm 5 mps 756 mmHg 37%
    17:00 +27°C° 0 mm 5 mps 755 mmHg 37%
    18:00 +25°C° 0 mm 5 mps 756 mmHg 44%
    19:00 +22°C° 0 mm 5 mps 756 mmHg 51%
    20:00 +21°C° 0 mm 5 mps 756 mmHg 57%
    21:00 +21°C° 0 mm 4 mps 756 mmHg 59%
    22:00 +21°C° 0 mm 4 mps 756 mmHg 60%
    23:00 +21°C° 0 mm 3 mps 757 mmHg 61%

    Day after tomorrow, 23 April, Tuesday

    Time Temperature Precipitation Wind Pressure Humidity
    00:00 +21°C° 0 mm 3 mps 757 mmHg 64%
    01:00 +20°C° 0 mm 3 mps 757 mmHg 66%
    02:00 +19°C° 0 mm 3 mps 757 mmHg 69%
    03:00 +19°C° 0 mm 2 mps 756 mmHg 72%
    04:00 +18°C° 0 mm 2 mps 756 mmHg 76%
    05:00 +18°C° 0 mm 2 mps 756 mmHg 80%
    06:00 +19°C° 0 mm 2 mps 756 mmHg 76%
    07:00 +20°C° 0 mm 2 mps 757 mmHg 72%
    08:00 +21°C° 0 mm 3 mps 757 mmHg 68%
    09:00 +24°C° 0 mm 2 mps 757 mmHg 63%
    10:00 +25°C° 0 mm 2 mps 757 mmHg 57%
    11:00 +27°C° 0 mm 2 mps 757 mmHg 51%
    12:00 +27°C° 0 mm 3 mps 757 mmHg 48%
    13:00 +28°C° 0 mm 4 mps 757 mmHg 46%
    14:00 +28°C° 0 mm 5 mps 756 mmHg 43%
    15:00 +27°C° 0 mm 5 mps 756 mmHg 46%
    16:00 +26°C° 0 mm 6 mps 756 mmHg 49%
    17:00 +24°C° 0 mm 6 mps 756 mmHg 52%
    18:00 +22°C° 0 mm 6 mps 756 mmHg 59%
    19:00 +21°C° 0 mm 5 mps 756 mmHg 65%
    20:00 +19°C° 0 mm 5 mps 756 mmHg 72%
    21:00 +17°C° 0 mm 5 mps 757 mmHg 75%
    22:00 +17°C° 0 mm 4 mps 757 mmHg 77%
    23:00 +17°C° 0 mm 4 mps 758 mmHg 80%

    24 April, Wednesday

    Time Temperature Precipitation Wind Pressure Humidity
    00:00 +15°C° 0 mm 4 mps 758 mmHg 83%
    01:00 +15°C° 0 mm 4 mps 757 mmHg 85%
    02:00 +14°C° 0 mm 4 mps 757 mmHg 88%
    03:00 +14°C° 0 mm 4 mps 757 mmHg 87%
    04:00 +14°C° 0 mm 4 mps 758 mmHg 86%
    05:00 +15°C° 0 mm 4 mps 758 mmHg 85%
    06:00 +15°C° 0 mm 5 mps 759 mmHg 80%
    07:00 +15°C° 0 mm 6 mps 759 mmHg 74%
    08:00 +15°C° 0 mm 7 mps 760 mmHg 69%
    09:00 +15°C° 0 mm 7 mps 760 mmHg 57%
    10:00 +15°C° 0 mm 7 mps 761 mmHg 45%
    11:00 +15°C° 0 mm 7 mps 761 mmHg 33%
    12:00 +15°C° 0 mm 7 mps 762 mmHg 38%
    13:00 +13°C° 0 mm 8 mps 762 mmHg 43%
    14:00 +12°C° 0 mm 8 mps 762 mmHg 47%
    15:00 +12°C° 0.2 mm 7 mps 762 mmHg 51%
    16:00 +11°C° 0.2 mm 7 mps 762 mmHg 55%
    17:00 +10°C° 0.2 mm 6 mps 762 mmHg 60%
    18:00 +10°C° 1 mm 6 mps 762 mmHg 62%
    19:00 +9°C° 1 mm 5 mps 762 mmHg 64%
    20:00 +9°C° 1 mm 5 mps 763 mmHg 67%
    21:00 +10°C° 0.1 mm 4 mps 763 mmHg 66%
    22:00 +10°C° 0.1 mm 4 mps 763 mmHg 64%
    23:00 +10°C° 0.1 mm 3 mps 763 mmHg 63%

    25 April, Thursday

    Time Temperature Precipitation Wind Pressure Humidity
    00:00 +10°C° 0 mm 3 mps 763 mmHg 62%
    01:00 +10°C° 0 mm 3 mps 763 mmHg 61%
    02:00 +10°C° 0 mm 3 mps 763 mmHg 59%
    03:00 +10°C° 0 mm 3 mps 763 mmHg 54%
    04:00 +10°C° 0 mm 3 mps 763 mmHg 48%
    05:00 +10°C° 0 mm 4 mps 763 mmHg 43%
    06:00 +11°C° 0 mm 4 mps 763 mmHg 38%
    07:00 +12°C° 0 mm 4 mps 763 mmHg 34%
    08:00 +13°C° 0 mm 4 mps 763 mmHg 29%
    09:00 +14°C° 0 mm 4 mps 763 mmHg 26%
    10:00 +17°C° 0 mm 3 mps 763 mmHg 24%
    11:00 +18°C° 0 mm 3 mps 764 mmHg 21%
    12:00 +19°C° 0 mm 3 mps 763 mmHg 20%
    13:00 +19°C° 0 mm 3 mps 762 mmHg 19%
    14:00 +20°C° 0 mm 3 mps 761 mmHg 18%
    15:00 +19°C° 0 mm 4 mps 761 mmHg 20%
    16:00 +17°C° 0 mm 5 mps 761 mmHg 22%
    17:00 +17°C° 0 mm 6 mps 760 mmHg 24%
    18:00 +15°C° 0 mm 5 mps 760 mmHg 26%
    19:00 +14°C° 0 mm 5 mps 761 mmHg 28%
    20:00 +13°C° 0 mm 4 mps 761 mmHg 30%
    21:00 +13°C° 0 mm 3 mps 761 mmHg 30%
    22:00 +14°C° 0 mm 2 mps 762 mmHg 30%
    23:00 +14°C° 0 mm 1 mps 762 mmHg 30%

    26 April, Friday

    Time Temperature Precipitation Wind Pressure Humidity
    00:00 +13°C° 0.2 mm 1 mps 762 mmHg 34%
    01:00 +13°C° 0.2 mm 2 mps 762 mmHg 38%
    02:00 +11°C° 0.2 mm 3 mps 762 mmHg 42%
    03:00 +11°C° 0.2 mm 3 mps 762 mmHg 44%
    04:00 +11°C° 0.2 mm 3 mps 762 mmHg 47%
    05:00 +11°C° 0.2 mm 3 mps 763 mmHg 49%
    06:00 +12°C° 0 mm 4 mps 763 mmHg 44%
    07:00 +13°C° 0 mm 5 mps 764 mmHg 39%
    08:00 +14°C° 0 mm 5 mps 765 mmHg 34%
    09:00 +15°C° 0 mm 5 mps 765 mmHg 30%
    10:00 +16°C° 0 mm 5 mps 765 mmHg 26%
    11:00 +19°C° 0 mm 5 mps 765 mmHg 22%
    12:00 +19°C° 0 mm 4 mps 765 mmHg 21%
    13:00 +20°C° 0 mm 4 mps 765 mmHg 20%
    14:00 +21°C° 0 mm 3 mps 764 mmHg 19%
    15:00 +20°C° 0 mm 3 mps 764 mmHg 19%
    16:00 +20°C° 0 mm 3 mps 764 mmHg 20%
    17:00 +20°C° 0 mm 2 mps 764 mmHg 21%
    18:00 +18°C° 0 mm 3 mps 764 mmHg 24%
    19:00 +17°C° 0 mm 3 mps 764 mmHg 27%
    20:00 +14°C° 0 mm 4 mps 765 mmHg 31%
    21:00 +13°C° 0 mm 3 mps 765 mmHg 31%
    22:00 +13°C° 0 mm 3 mps 765 mmHg 32%
    23:00 +13°C° 0 mm 2 mps 765 mmHg 33%
    Show more